RH
40 47 48 48 51 51 47 41 36 34 35 39 46 50 49 46 40 34 32 29 24 18 12 10 10 11 22 35 40 36 25 18 23 30 34 35 31 27 25 25 27 29 30 36 47 55 56 53 50 45 39 34 32 32 32 33 32 32 31 30 27 25 24 22 21 21 21 21 21 21 21 21 21 20 20 21 21 21 21 22 22 22 22 23 23
45 50 50 51 54 53 47 37 32 31 32 33 38 43 46 47 45 40 37 33 28 24 19 15 13 11 20 35 42 37 26 20 25 31 35 35 32 28 26 27 29 31 32 39 50 56 54 50 50 50 46 40 36 34 35 36 35 34 34 33 33 32 30 28 25 24 23 22 22 22 22 22 22 22 21 22 22 22 22 23 23 23 24 24 24
48 50 51 53 56 55 46 34 30 31 30 29 29 31 34 38 41 41 40 37 33 29 24 21 19 16 22 36 43 38 26 21 27 34 36 35 32 29 27 28 31 33 37 43 49 51 48 42 42 49 49 41 35 34 35 36 35 33 32 32 34 35 33 31 28 26 24 24 23 24 24 24 23 23 23 23 23 23 23 24 24 24 24 24 24
48 49 52 56 60 57 44 33 33 34 33 31 28 25 24 24 25 27 31 34 36 34 31 28 26 23 29 39 44 38 26 21 28 36 36 35 33 30 28 30 33 36 40 43 44 44 42 37 38 45 45 37 31 32 34 35 34 32 30 31 34 36 34 30 28 27 25 24 24 24 25 25 25 24 24 24 24 24 24 24 24 23 22 22 22
48 49 54 62 65 57 43 34 37 39 39 37 31 25 20 16 15 15 16 20 25 29 31 32 33 33 38 44 46 39 25 20 27 34 36 35 33 31 29 31 34 37 39 40 39 40 39 37 38 42 41 35 31 32 35 36 33 30 28 29 32 34 32 29 28 27 26 25 25 25 26 26 27 27 26 26 25 24 24 23 22 21 21 21 22
49 52 59 68 69 57 41 37 42 47 50 49 46 40 33 27 22 18 16 15 16 19 22 26 30 36 41 45 46 39 25 18 24 31 34 34 32 31 31 32 35 37 38 37 36 37 38 40 40 41 41 36 32 35 39 40 36 31 28 28 30 31 29 27 27 27 27 26 25 25 26 26 28 29 29 29 26 22 21 21 20 19 19 20 23
53 55 62 70 69 55 41 40 49 54 56 58 59 57 51 45 40 35 29 25 22 21 22 23 24 28 34 40 44 38 24 16 21 29 32 32 31 31 31 33 35 37 37 36 35 37 40 41 41 42 41 38 37 44 49 49 45 40 34 30 29 30 28 26 26 26 26 25 25 24 25 26 26 26 26 24 20 18 17 17 18 18 19 20 21
60 60 62 68 66 53 42 45 53 56 57 58 59 58 55 52 51 46 38 33 30 28 26 25 25 26 29 35 39 34 21 13 18 27 31 31 31 31 31 33 35 37 36 35 35 38 42 42 41 43 45 46 51 57 58 58 59 57 50 40 33 30 29 27 26 26 26 25 25 25 25 25 24 22 20 17 14 14 13 14 15 16 19 21 21
63 60 60 64 62 51 43 48 54 57 57 57 58 60 60 57 53 48 42 38 36 33 30 28 26 25 25 28 29 25 17 12 17 28 33 32 31 30 30 33 36 37 36 36 36 39 44 44 43 46 49 51 56 61 62 65 69 69 63 55 45 35 31 30 28 27 27 26 26 26 26 26 23 19 16 14 13 12 11 11 12 12 14 16 18
62 57 56 58 58 51 45 48 53 56 58 59 61 64 65 61 57 53 50 46 40 36 33 31 28 27 25 24 22 19 16 14 19 29 34 32 30 29 29 33 38 39 37 37 38 40 45 49 50 53 51 50 55 61 64 67 68 66 65 68 63 47 35 32 31 28 28 27 27 27 26 25 22 17 14 12 11 10 9 9 8 8 9 10 15
56 54 54 54 54 52 48 49 52 55 57 58 60 64 65 64 62 59 56 53 49 45 40 34 30 28 26 25 23 20 18 16 21 30 34 32 29 28 29 33 38 40 39 38 38 41 46 53 60 65 62 58 60 62 61 60 60 62 65 70 72 61 42 34 34 31 29 28 28 28 27 24 19 14 12 11 10 8 7 6 6 6 6 8 12
51 54 56 54 52 51 52 53 54 55 56 56 58 61 63 64 64 61 58 56 54 53 49 41 35 31 27 26 25 24 22 19 21 28 33 32 28 27 29 32 36 41 41 38 38 41 47 55 65 74 74 70 70 65 58 56 57 59 59 62 71 69 49 37 36 33 29 29 29 28 25 21 16 12 11 10 8 6 6 5 5 6 6 8 11
49 56 60 58 56 54 53 54 56 55 55 55 56 59 60 61 63 62 60 58 56 57 55 48 42 39 33 27 26 27 27 23 21 26 33 34 29 26 28 30 35 41 41 38 38 41 48 56 65 76 78 75 75 70 61 60 63 62 60 63 72 70 54 41 38 33 29 29 28 26 22 17 13 11 10 8 6 6 5 5 5 6 7 9 10
53 63 65 64 65 63 59 58 59 58 58 58 58 59 61 62 62 60 58 58 57 60 60 54 47 44 38 31 28 29 29 27 24 24 31 35 31 27 28 29 32 38 41 39 38 42 50 56 64 74 75 72 76 74 66 68 71 69 67 71 77 72 58 46 39 33 30 28 26 23 19 14 12 10 8 7 5 5 5 5 5 6 7 9 9
65 71 70 69 69 68 65 64 63 61 61 61 61 62 63 65 65 62 60 59 60 62 62 58 52 49 44 38 33 30 29 29 27 24 29 35 33 28 27 27 28 33 39 41 40 43 51 57 65 70 67 64 72 73 69 72 77 75 71 73 78 76 63 48 38 33 31 28 23 19 15 12 10 8 7 6 5 5 5 5 5 6 7 7 6
70 72 72 72 70 68 67 70 70 67 64 63 63 65 67 68 68 66 64 63 64 64 63 60 56 55 53 46 38 33 31 30 29 26 27 33 35 30 26 26 27 29 35 41 43 45 51 59 67 67 57 56 65 68 67 74 81 80 73 68 68 68 59 45 35 31 30 26 20 15 13 11 10 8 6 6 5 5 5 5 5 6 6 5 4
64 67 67 66 67 68 71 73 72 70 69 68 67 67 69 70 71 72 70 66 64 63 63 62 60 60 59 53 45 39 36 33 31 29 28 31 34 31 26 26 27 27 32 39 43 46 51 59 66 63 51 48 54 57 62 73 82 82 75 64 59 55 45 36 31 30 29 25 17 13 12 10 9 7 6 5 5 5 5 5 5 5 4 4 4
50 51 51 56 64 70 72 72 72 73 73 74 73 72 73 72 72 73 72 69 66 63 61 61 62 62 61 58 53 46 40 36 33 30 29 30 32 31 27 26 27 27 32 38 44 49 53 58 64 62 50 44 45 47 57 72 82 85 78 64 55 49 40 33 31 30 28 22 15 12 11 9 7 6 5 5 5 5 5 5 5 4 4 4 4
45 42 45 56 65 68 69 71 74 76 75 75 75 74 74 72 71 71 71 70 71 71 66 60 57 60 63 64 61 53 46 41 36 33 31 30 31 31 27 25 26 29 34 39 45 52 55 57 62 63 53 44 41 44 57 71 80 85 80 69 59 50 41 35 32 30 27 19 13 12 10 8 7 6 5 5 5 5 5 5 4 4 4 4 4
52 46 48 58 65 66 68 70 71 74 75 76 76 75 75 75 73 71 71 70 71 74 75 68 60 59 64 67 66 62 56 48 41 37 34 31 31 32 29 27 28 32 37 42 48 55 57 58 63 63 55 47 42 44 55 71 80 83 79 72 63 52 42 36 34 31 26 17 12 11 9 6 6 5 5 5 4 4 5 4 4 4 4 4 4
59 54 52 54 56 60 62 62 64 67 67 67 69 69 69 71 70 68 68 66 62 64 70 70 66 62 63 67 69 68 65 59 51 46 41 35 33 32 30 29 31 34 39 44 50 57 60 61 66 68 62 56 51 47 55 71 80 78 74 69 62 52 43 38 34 31 25 16 12 11 8 6 6 5 5 5 4 5 4 4 4 4 4 4 5
58 58 56 53 52 53 53 53 55 53 47 48 55 57 56 60 64 65 62 56 51 52 55 60 66 67 65 66 69 70 69 68 62 55 49 42 38 35 32 31 32 35 39 44 51 60 65 67 73 77 75 71 63 53 57 73 80 74 67 64 60 53 45 39 36 31 23 15 12 10 7 6 6 5 5 5 4 4 4 3 4 4 4 4 4
47 49 50 49 49 48 46 46 47 45 41 43 48 48 49 52 54 53 50 44 39 39 39 42 54 67 67 64 66 69 70 72 68 63 60 54 45 39 37 36 36 36 39 43 51 62 71 74 78 80 80 80 74 62 59 69 77 73 65 60 59 55 47 40 37 31 21 14 12 10 6 6 6 5 4 5 4 4 4 3 4 4 4 4 4
40 41 43 44 44 43 42 43 45 45 44 43 42 41 42 44 44 44 44 40 36 35 35 32 39 55 65 67 69 69 71 75 73 68 66 61 51 45 44 42 42 41 42 46 53 63 72 76 79 81 80 81 81 75 69 71 74 71 64 58 57 55 47 42 39 30 19 13 11 9 6 6 6 5 4 4 4 4 3 3 4 4 4 4 4
40 44 45 46 47 46 46 46 47 46 45 44 42 41 41 42 43 42 42 44 43 45 48 44 40 46 56 61 61 60 63 70 74 72 70 63 56 55 56 54 50 48 47 49 55 65 73 76 78 79 77 76 78 77 78 79 74 69 63 57 56 54 48 44 41 30 18 13 11 9 7 6 5 5 4 4 4 4 3 3 4 5 5 4 4
34 40 43 44 46 46 46 45 45 44 44 43 40 40 43 46 48 48 51 57 59 60 63 62 54 50 51 52 51 48 47 52 59 67 70 64 57 57 60 60 57 54 53 55 58 66 74 76 77 77 75 74 75 76 80 80 73 71 69 61 56 55 50 46 42 29 16 13 12 8 6 6 5 5 4 4 4 3 3 4 4 5 5 4 4
29 34 38 39 40 41 41 42 42 40 39 37 34 35 40 47 52 56 61 64 64 65 66 66 63 61 61 65 66 60 55 54 57 62 69 69 66 63 59 59 60 59 58 60 63 68 72 71 71 73 74 75 78 80 84 83 75 75 76 67 59 57 53 48 43 29 16 13 12 8 6 6 5 4 4 4 3 3 3 4 5 5 5 4 4
29 32 34 33 32 33 33 35 35 33 31 31 30 31 35 41 47 51 51 49 49 50 49 50 56 60 64 72 78 74 68 66 63 65 73 78 79 74 67 63 62 61 62 66 70 73 75 72 71 73 73 74 78 79 82 84 80 77 75 69 64 61 55 51 44 29 16 13 12 8 6 6 5 4 4 3 3 3 4 5 5 5 5 5 5
27 29 30 29 28 30 31 31 30 30 29 28 28 29 31 33 35 34 33 33 35 36 36 39 46 52 56 62 66 64 64 65 62 65 76 82 81 80 78 71 64 60 62 67 72 76 78 77 77 79 75 73 75 79 83 86 85 81 73 69 69 66 58 54 46 28 15 14 12 7 6 6 5 4 4 3 3 3 4 5 5 5 5 5 5
24 26 27 28 29 30 31 30 30 30 29 29 28 28 27 27 26 26 27 29 31 34 37 40 44 48 52 55 55 53 55 58 57 60 69 75 76 78 82 82 76 71 70 70 71 73 76 77 79 81 80 76 77 83 88 89 89 86 76 69 72 70 62 56 47 28 15 14 12 7 6 6 5 4 4 3 3 3 4 5 5 5 5 5 5
28 29 30 31 32 33 34 35 35 34 33 32 30 28 26 25 24 23 25 29 31 34 39 43 45 48 50 51 52 54 54 53 49 49 57 67 70 71 77 81 78 75 75 75 72 68 68 72 76 77 78 82 85 86 86 85 88 90 82 74 74 72 66 59 47 27 16 15 11 6 6 6 5 4 4 3 3 4 4 5 5 5 5 5 5
31 33 34 34 35 36 37 38 38 36 34 32 31 29 27 26 26 26 27 29 30 31 34 37 40 43 43 42 45 49 51 52 49 46 52 62 64 64 72 80 80 80 79 76 74 71 68 71 77 76 74 79 85 85 84 86 90 92 87 81 77 72 68 62 46 26 16 15 10 6 6 6 4 4 4 3 3 4 5 5 5 5 5 5 5
36 37 38 38 38 39 38 39 39 39 37 35 33 31 29 28 28 29 29 30 30 29 29 30 32 34 35 35 36 39 44 53 57 56 56 59 55 50 56 65 74 85 87 79 75 76 73 74 84 85 79 79 83 84 86 89 90 89 86 81 76 72 69 62 44 25 17 15 10 6 6 6 5 4 4 3 3 4 5 6 5 5 6 6 6
39 40 40 39 38 38 37 38 39 38 37 36 34 32 30 29 29 30 31 32 32 31 29 28 27 27 27 28 31 33 37 46 57 62 64 63 58 54 55 57 61 73 81 80 77 77 76 82 90 90 86 88 90 88 89 91 91 88 84 77 72 72 71 61 41 24 18 14 9 6 6 6 5 4 4 3 4 4 5 6 5 5 6 6 6
41 40 38 36 34 34 35 35 36 35 34 34 33 32 30 29 30 32 33 31 28 26 24 23 22 23 23 24 26 29 32 38 48 57 61 61 59 58 57 59 65 73 79 78 75 74 79 87 90 87 88 92 92 90 93 96 94 87 79 73 72 73 72 59 38 23 18 14 8 6 6 6 5 4 4 3 3 4 6 6 6 6 6 6 7
41 39 36 34 31 30 31 33 34 34 33 32 32 31 30 30 30 29 27 23 20 18 16 15 15 15 16 17 18 20 24 28 36 47 54 59 62 61 55 54 61 70 76 78 78 78 80 81 81 84 88 90 91 94 99 99 92 82 75 74 75 75 72 57 35 22 17 13 8 6 7 5 5 4 3 3 4 5 6 6 6 6 6 7 8
40 38 36 34 31 31 33 33 34 35 34 33 33 32 31 30 27 24 21 18 15 13 11 11 13 16 21 26 25 24 23 22 23 31 41 52 63 70 69 66 65 66 70 76 79 81 80 77 77 85 90 89 91 98 100 94 87 81 78 77 77 77 71 54 33 22 17 11 7 7 6 5 5 4 3 3 4 4 6 6 6 6 6 7 8
36 36 36 35 35 36 35 35 35 36 35 34 34 32 30 26 22 19 16 13 12 15 19 25 32 39 43 44 45 48 50 44 35 33 40 51 64 72 74 74 76 79 82 82 78 77 78 78 79 86 91 90 88 90 91 89 87 83 80 79 79 78 69 49 30 21 16 10 7 7 6 5 5 4 3 4 4 4 6 7 6 6 7 7 8
33 33 34 36 37 37 36 35 36 37 36 35 33 29 25 21 18 17 18 21 27 34 40 45 51 55 56 55 58 68 73 69 63 62 61 60 66 74 77 78 81 88 95 96 90 85 84 82 81 85 92 93 88 83 80 81 82 80 77 77 80 79 66 45 29 20 14 9 7 7 6 6 5 4 3 4 3 4 6 7 6 6 7 7 9
33 31 32 33 34 35 37 38 38 37 35 32 28 25 22 22 22 25 32 41 46 46 48 50 49 49 57 68 77 84 86 84 87 92 88 75 65 66 70 76 84 93 99 102 101 97 92 88 88 93 98 98 90 81 77 76 76 74 73 78 83 77 62 43 28 19 13 9 7 6 6 6 5 4 4 3 3 4 6 6 6 7 6 7 9
27 28 31 33 35 37 39 39 37 35 32 28 24 24 24 25 26 31 42 52 51 45 47 51 45 42 57 80 91 89 84 85 91 98 100 96 90 83 78 80 90 98 101 101 102 100 95 93 96 100 102 99 91 83 78 75 72 70 74 81 83 75 59 42 27 16 11 9 7 6 6 6 4 4 4 3 3 4 6 7 7 7 6 8 9
25 28 33 37 40 42 42 38 34 32 29 25 21 19 19 20 25 32 45 55 54 48 47 49 47 49 63 81 89 85 80 82 92 100 103 104 104 99 92 91 95 98 97 97 99 100 98 98 100 101 101 98 91 84 78 72 69 73 80 85 82 73 58 40 23 13 11 9 7 6 7 6 5 4 4 3 4 4 5 7 7 7 7 8 9
25 31 36 42 46 46 43 38 33 30 27 22 18 15 15 19 27 38 51 59 58 51 45 43 49 64 77 84 89 92 87 82 89 97 100 100 99 97 95 97 99 97 95 96 100 101 99 99 100 101 102 98 89 79 72 69 72 80 86 86 81 73 57 35 18 12 11 8 6 6 7 6 5 5 4 3 4 4 5 7 8 7 7 8 8
29 35 41 45 47 47 43 38 34 31 27 23 20 18 20 24 32 45 59 65 61 56 53 48 49 63 77 84 88 90 85 78 79 84 88 93 97 99 100 101 100 98 98 100 102 101 98 98 100 101 98 91 81 72 68 71 78 86 90 89 84 71 50 27 15 12 10 8 6 7 6 6 5 5 4 4 4 4 5 7 7 8 8 7 8
41 45 48 48 47 47 43 38 36 35 32 28 25 25 28 33 40 51 62 66 63 62 61 56 53 58 66 70 72 70 66 66 73 80 87 92 95 96 95 92 91 93 98 101 101 100 99 99 100 97 90 82 74 69 70 76 84 90 93 91 82 62 38 20 13 12 10 8 7 6 6 6 6 4 4 4 3 3 5 6 7 8 9 8 8
55 55 53 50 48 46 42 39 37 37 34 30 28 31 38 45 50 55 60 62 63 62 60 56 58 62 65 65 65 63 60 61 67 74 80 85 85 84 81 80 81 88 95 99 101 102 101 99 96 90 83 76 73 73 77 84 91 95 93 85 67 46 27 17 14 12 10 8 7 6 6 7 6 5 4 4 3 4 4 6 7 8 9 8 8
64 61 58 54 50 47 45 42 38 35 32 30 30 39 50 57 60 61 62 63 64 65 64 61 61 66 69 71 71 70 66 66 69 72 75 78 80 79 77 77 81 88 94 95 95 93 91 88 83 78 74 72 75 80 87 92 96 95 86 69 49 32 21 16 14 12 10 8 7 6 6 6 6 5 4 4 4 4 4 5 7 9 9 9 9
57 57 55 52 49 45 42 37 33 30 30 31 35 46 60 68 67 66 69 73 75 75 74 72 70 74 80 84 83 79 74 72 74 78 83 87 87 85 82 80 80 82 84 82 77 73 74 74 72 71 73 78 84 90 96 99 97 88 71 51 35 26 20 16 14 12 10 8 6 6 6 6 6 6 5 4 4 4 4 5 6 8 9 9 9
48 47 45 44 44 41 37 33 30 32 37 41 45 51 62 72 73 70 73 81 86 85 84 84 85 88 93 97 95 91 90 88 87 89 93 95 94 94 93 92 89 86 85 84 81 81 85 87 83 81 84 90 95 98 101 98 87 69 50 36 28 23 18 15 14 12 10 8 7 6 7 7 6 6 5 5 4 4 4 5 6 7 8 9 9
60 61 60 59 57 55 51 46 42 42 49 57 62 63 66 70 72 70 73 79 82 81 85 91 95 95 97 99 99 98 98 99 98 98 98 97 96 97 99 98 95 94 95 96 95 96 97 96 92 92 95 99 100 99 93 80 62 46 34 27 23 20 17 15 14 12 10 8 7 6 6 7 7 6 5 5 4 4 4 4 5 6 8 9 9
64 69 73 74 73 71 70 67 63 60 60 65 70 71 71 71 70 69 72 78 82 85 91 98 99 98 98 100 100 99 99 99 99 100 99 97 97 99 99 99 99 99 99 98 97 97 97 97 98 99 99 95 88 77 64 49 37 30 25 23 20 17 15 14 14 12 10 7 6 7 7 7 8 7 6 5 4 4 4 4 5 6 7 8 9
Wind_Speed
19 18 18 18 18 18 18 19 20 20 21 22 21 22 23 24 23 23 23 23 22 22 21 22 22 21 20 19 18 17 16 17 17 16 16 15 14 13 11 11 11 12 12 13 14 14 13 13 13 13 12 11 11 11 11 12 13 13 14 14 14 13 13 14 15 15 15 17 18 19 20 21 22 23 24 25 26 27 28 29 31 33 35 36 37
19 19 19 19 18 18 19 19 19 18 18 19 20 21 23 24 24 24 24 24 24 23 23 23 23 22 21 20 20 18 17 18 18 17 17 16 15 14 13 12 12 13 13 14 15 15 16 16 16 15 13 11 11 12 12 12 13 14 15 15 16 16 16 16 17 17 18 18 19 20 22 23 24 25 25 26 27 29 30 31 32 34 36 38 39
21 21 21 20 19 19 19 18 17 16 15 16 17 19 21 23 24 24 24 25 25 25 24 24 24 24 23 22 22 20 18 19 19 18 17 17 16 15 14 14 14 14 15 15 16 17 18 19 19 17 14 12 12 12 13 14 15 16 16 16 16 16 17 17 18 19 20 20 20 20 22 24 26 27 28 29 30 31 32 33 34 36 37 39 40
22 23 21 21 20 20 18 17 15 14 14 14 15 16 17 19 21 22 24 25 26 26 26 25 25 25 24 23 23 21 20 20 20 19 18 17 16 16 15 15 15 16 16 16 18 19 20 20 20 17 15 14 14 14 14 15 17 18 17 16 16 15 17 18 18 19 21 22 23 23 23 25 27 29 31 32 32 33 34 35 36 38 39 40 41
23 22 22 22 21 20 18 16 14 13 13 13 13 13 13 14 15 17 20 22 25 26 27 27 27 26 25 25 24 23 22 22 21 20 19 18 16 16 16 16 17 17 17 17 19 21 21 21 20 18 16 15 16 16 16 17 19 19 19 18 16 15 16 17 18 20 21 23 25 26 26 28 30 32 33 34 35 36 37 38 39 40 41 42 43
24 23 22 22 22 20 18 16 14 13 13 12 11 11 10 10 11 13 14 16 18 21 24 26 28 27 26 26 25 24 23 23 22 21 20 18 17 16 17 18 18 18 18 19 20 22 22 22 21 19 18 17 18 18 17 18 19 20 21 20 19 17 17 17 18 20 22 24 25 27 28 30 32 34 35 36 37 39 39 40 41 42 44 45 46
25 24 23 23 22 21 18 16 14 14 13 12 10 10 9 9 10 12 13 13 14 15 17 19 22 24 25 26 26 25 24 24 23 22 21 19 18 18 18 19 19 18 19 19 21 22 22 21 21 20 18 18 18 18 18 19 20 21 22 22 22 20 19 19 19 20 22 24 26 28 29 31 33 34 35 36 37 38 39 41 42 44 46 47 49
25 23 22 22 22 20 19 17 15 14 13 12 11 10 10 10 11 12 13 13 14 15 15 15 16 18 20 23 25 25 25 24 23 22 21 20 19 20 20 20 19 19 19 20 22 22 22 21 20 19 18 18 19 20 21 22 22 22 23 24 24 23 22 22 22 22 23 25 27 29 30 32 33 34 35 36 37 38 39 41 43 45 47 48 49
24 22 21 21 21 21 20 19 17 15 14 12 11 11 12 12 12 12 12 12 13 15 16 16 16 16 18 21 23 24 25 24 23 22 21 21 22 22 22 21 20 20 20 22 22 23 22 21 19 18 17 18 21 22 23 23 24 24 26 26 26 25 24 25 25 25 25 27 29 30 31 33 34 34 35 35 36 38 40 42 44 46 48 49 50
21 19 18 19 21 22 22 21 18 16 14 13 12 13 15 15 14 13 13 13 13 14 15 16 17 17 18 20 22 23 24 24 24 24 23 23 24 24 23 23 22 22 22 22 23 23 23 21 19 18 17 18 21 22 23 23 24 26 29 30 28 27 26 26 26 27 27 29 31 32 33 34 35 35 35 36 37 39 41 43 45 47 49 50 50
19 18 16 17 20 23 23 22 20 18 16 15 14 14 16 17 17 17 16 15 15 15 15 15 16 17 18 20 21 22 23 25 26 25 25 25 26 26 25 24 24 23 23 23 24 24 23 21 19 19 19 19 21 22 23 24 26 28 31 32 31 29 27 27 27 28 29 30 32 33 34 35 35 35 35 36 38 40 42 44 46 48 50 50 49
18 17 16 18 19 20 21 21 20 19 18 17 17 16 17 18 19 20 19 18 18 17 16 16 16 17 17 18 20 21 23 25 27 27 27 28 28 28 27 27 26 25 24 25 25 25 24 21 20 21 22 21 22 23 24 25 28 31 33 34 33 30 27 27 28 29 30 31 32 33 35 35 35 35 36 38 39 41 43 45 47 49 49 49 47
18 18 18 19 18 18 19 20 19 18 18 19 19 20 19 18 19 21 22 22 21 20 18 17 17 17 16 17 18 20 23 26 27 28 29 30 30 29 29 28 28 27 26 27 26 26 25 22 21 23 25 24 24 25 25 27 30 33 35 36 34 29 27 27 29 30 31 31 32 33 34 34 34 35 36 38 40 42 44 46 47 48 48 47 44
20 20 20 20 18 18 19 19 19 19 19 20 22 22 21 19 19 21 23 24 24 22 21 19 18 17 17 17 18 20 22 26 28 28 30 31 31 31 31 31 30 30 29 28 27 26 25 23 22 24 26 26 26 28 28 28 31 34 36 36 33 28 26 28 30 31 32 32 32 33 34 34 34 35 37 39 41 43 45 46 47 47 46 44 41
24 24 23 22 21 21 20 20 20 21 21 22 23 23 22 22 22 22 24 25 26 25 24 22 20 19 18 18 19 19 21 25 28 29 30 32 33 33 33 32 32 31 31 30 28 26 25 24 23 25 27 27 28 29 29 29 32 35 36 36 32 28 27 29 30 31 33 33 33 33 33 33 34 35 37 39 41 43 44 46 46 45 43 41 39
29 28 27 26 25 24 23 23 24 24 23 24 24 24 25 25 24 24 24 25 27 27 26 24 22 21 20 20 20 20 21 24 27 29 30 33 34 34 34 34 33 32 32 31 29 27 26 25 25 26 28 28 30 30 29 29 32 35 36 35 32 29 29 30 31 32 34 34 34 33 33 33 34 36 37 39 41 43 44 45 44 42 41 39 36
31 30 29 28 26 26 28 28 28 27 26 26 26 26 26 27 27 25 24 25 26 28 27 26 26 25 24 22 22 22 23 25 27 29 31 34 35 34 35 35 35 33 33 32 30 27 27 26 27 29 29 30 31 31 29 29 32 35 35 35 33 32 32 32 33 34 35 35 34 33 33 33 35 36 38 40 41 43 44 43 42 40 38 36 34
30 28 26 24 25 30 33 32 31 30 28 28 28 28 28 29 29 30 29 28 28 29 30 30 29 28 27 25 24 24 25 26 28 30 32 34 35 35 36 37 37 35 34 33 30 29 28 29 29 31 31 32 33 32 29 29 32 35 35 34 34 34 34 35 35 36 36 35 34 33 33 33 34 36 38 40 41 43 42 41 40 38 36 35 34
26 25 23 22 26 32 34 33 32 33 33 33 32 31 31 32 33 35 35 34 32 32 35 35 33 31 30 29 27 27 27 28 30 31 32 34 36 36 37 39 39 37 35 34 32 31 31 31 32 33 34 34 34 33 31 31 33 35 36 35 35 35 36 36 38 38 37 36 35 33 32 33 35 36 38 40 41 41 41 39 37 36 34 34 34
27 26 26 26 29 32 33 33 33 32 33 35 36 35 35 35 35 36 36 36 35 34 37 39 37 34 33 33 31 30 30 31 31 32 33 35 37 38 38 40 41 39 36 35 34 33 34 34 34 36 36 36 36 35 33 33 35 36 36 35 35 36 36 37 38 38 38 37 35 33 33 33 35 36 38 39 40 40 39 37 35 33 33 34 35
32 32 32 31 32 32 34 35 33 31 31 32 34 36 36 36 36 36 36 37 36 35 36 39 41 39 36 36 35 33 33 33 33 34 35 37 39 40 39 41 43 42 39 38 36 36 37 37 37 39 38 37 38 38 36 35 36 36 35 35 35 36 37 38 39 39 38 37 35 33 33 34 35 36 38 39 39 38 37 35 32 31 32 33 35
36 36 36 35 34 35 36 36 36 34 33 33 34 36 37 37 37 37 38 38 38 36 36 37 41 42 39 37 37 38 38 37 36 36 37 38 39 40 39 40 44 45 42 39 37 38 39 40 40 41 42 41 41 40 36 36 36 35 34 35 35 36 37 39 39 39 38 36 34 33 33 34 36 37 37 38 38 37 35 32 30 30 31 33 35
39 39 39 38 37 38 38 38 38 37 35 35 37 39 39 39 39 40 40 41 41 40 38 36 38 42 42 40 39 40 40 40 40 39 39 39 40 40 40 41 45 47 43 39 38 41 43 43 43 45 45 44 42 38 34 35 37 35 34 35 36 37 38 39 39 39 38 36 34 33 34 35 36 37 37 37 37 35 33 31 29 29 31 33 35
40 40 39 39 38 38 38 38 38 38 37 38 39 41 42 42 42 43 44 45 45 44 42 39 38 39 42 43 43 42 42 42 42 41 42 42 42 42 43 44 47 47 44 40 40 44 46 46 46 48 48 47 46 44 42 41 40 37 34 35 36 37 38 39 39 39 37 35 34 33 34 35 36 36 37 37 35 33 31 29 28 29 31 33 34
41 41 40 40 40 40 40 40 40 40 41 42 42 43 44 45 46 46 45 46 48 47 45 43 40 39 41 44 44 44 45 45 44 43 45 46 44 44 46 47 48 48 45 43 43 46 49 49 50 52 52 51 51 52 50 46 42 38 34 34 36 37 38 38 39 39 37 35 34 34 34 36 37 36 36 35 34 31 29 27 27 29 31 33 34
42 43 43 43 42 42 43 43 43 43 44 45 45 45 45 46 47 47 46 47 48 49 48 47 45 43 43 44 44 44 44 44 43 43 46 49 48 48 49 49 49 49 48 48 48 50 52 53 52 54 55 53 53 55 52 45 41 39 36 35 36 38 39 38 39 39 37 35 34 34 34 36 37 36 35 34 32 30 27 26 27 29 31 33 34
44 44 45 45 45 45 46 46 47 47 47 47 46 46 46 46 46 47 47 49 50 50 50 51 51 49 47 47 48 47 45 44 43 43 47 51 50 50 52 54 54 52 51 51 52 53 57 59 57 55 55 55 56 57 52 44 42 42 40 37 36 38 39 39 39 39 37 35 35 34 35 36 37 35 34 33 31 28 26 25 27 29 30 32 33
45 46 47 48 48 48 48 48 48 48 47 46 46 47 47 47 48 49 50 51 52 51 51 52 53 52 51 51 51 49 47 46 46 46 49 53 53 53 54 57 58 57 54 54 55 57 61 63 62 59 59 59 59 57 53 49 47 45 42 39 38 39 40 40 39 38 36 36 35 34 35 37 36 35 34 32 29 26 25 24 26 28 30 31 32
48 49 50 49 49 48 47 47 47 46 46 46 47 47 48 49 50 52 52 52 53 53 54 54 54 54 55 55 55 54 52 50 50 51 53 54 55 57 58 59 60 60 59 58 59 62 65 66 66 65 65 64 62 59 55 50 46 43 42 40 39 39 40 40 40 38 36 36 36 35 35 36 36 34 33 31 28 25 24 24 26 28 29 30 31
48 48 48 48 47 47 47 47 46 46 47 48 49 49 50 51 52 54 55 55 55 56 57 57 56 55 57 58 59 59 57 54 54 57 59 58 58 59 60 61 61 62 63 63 65 68 69 69 70 71 69 66 63 58 52 47 45 44 43 41 39 40 41 40 39 37 37 37 36 35 35 36 36 34 32 30 27 24 23 24 25 27 28 29 30
44 45 46 46 47 48 48 47 47 48 49 50 51 52 53 54 55 56 58 58 59 59 60 60 59 59 60 60 61 61 61 59 59 59 61 63 64 63 63 64 64 64 65 67 69 72 73 72 72 72 68 63 59 56 53 53 50 46 42 41 40 40 41 40 39 37 37 37 36 35 35 36 35 34 32 29 26 23 22 23 25 26 27 27 28
44 46 47 48 50 51 51 51 51 51 52 53 54 55 56 56 57 58 60 61 61 62 63 63 63 64 64 64 64 64 64 64 63 61 62 66 68 66 65 67 68 66 67 70 71 73 74 72 71 70 67 63 59 58 58 56 51 46 44 43 41 40 40 40 38 37 37 38 36 35 35 36 35 33 31 28 25 23 22 23 24 25 26 26 27
47 49 50 52 53 54 55 56 56 56 56 56 56 56 57 58 59 60 61 62 62 63 63 64 65 66 66 68 69 69 68 67 67 66 67 70 72 70 69 70 70 68 69 71 72 73 72 71 69 69 66 63 61 59 57 52 47 44 43 41 39 39 40 39 38 37 38 38 36 35 35 35 35 33 31 28 24 22 22 23 24 25 25 25 25
49 50 52 53 54 56 58 59 59 59 59 59 59 59 59 59 61 61 61 61 62 63 63 64 65 66 67 69 71 71 71 70 70 69 70 73 76 74 72 71 72 71 68 67 68 68 67 67 68 67 61 57 57 56 51 45 42 40 40 39 38 39 40 38 37 38 38 37 36 35 35 35 35 33 30 27 24 22 22 23 24 24 24 24 24
51 51 52 53 54 56 58 59 60 61 60 60 61 61 59 60 62 62 61 61 61 62 63 64 67 69 70 72 73 74 74 73 72 71 72 75 78 79 76 74 74 73 69 65 63 62 63 66 68 66 60 57 57 55 49 43 40 39 39 38 38 39 39 38 37 37 38 38 36 35 35 35 34 32 30 27 24 22 22 23 24 24 24 23 23
53 54 54 54 56 57 57 57 57 58 59 59 60 59 58 60 61 61 60 59 60 62 63 65 67 70 72 74 76 78 78 76 74 74 75 78 81 82 80 76 75 74 72 68 66 65 66 67 66 65 64 61 57 54 49 43 40 39 38 37 38 39 38 37 36 37 38 37 35 35 35 35 34 32 30 26 23 22 22 23 24 24 24 23 23
55 56 57 58 59 58 57 55 54 54 54 55 55 56 57 58 59 59 59 59 61 64 65 67 70 72 74 75 78 81 82 81 78 77 78 81 83 81 76 72 72 74 72 70 71 69 65 61 60 61 62 59 51 47 46 42 38 38 38 37 38 39 37 35 36 38 38 37 35 35 35 35 34 32 30 26 23 22 22 23 24 25 24 23 22
57 58 59 58 58 57 55 54 53 52 52 52 52 53 55 56 57 58 58 59 62 64 66 69 70 69 69 71 75 80 83 84 82 81 82 82 82 82 77 68 63 64 66 68 70 68 63 58 57 54 51 47 42 41 42 40 38 38 38 37 38 38 36 35 36 38 38 37 36 36 35 35 33 32 29 26 23 21 22 23 24 25 25 23 23
54 55 55 55 55 54 53 52 52 51 51 51 51 52 52 53 55 56 56 57 59 60 62 64 63 61 62 64 66 69 74 79 82 84 84 82 80 79 79 73 63 58 60 63 64 65 63 58 54 49 43 40 40 40 39 39 38 36 36 38 38 36 34 34 36 38 37 37 36 36 35 34 33 32 30 26 23 21 22 24 25 26 26 24 23
50 50 51 52 53 52 51 50 49 49 49 49 49 49 49 50 51 51 51 52 52 53 55 57 56 56 54 49 45 49 59 68 71 68 70 79 84 81 78 77 69 59 59 61 58 59 59 54 50 49 45 42 41 40 38 37 36 35 37 38 37 34 33 35 37 37 37 37 36 36 35 34 33 32 30 27 23 22 22 24 26 27 27 25 24
50 49 48 49 49 49 49 48 47 47 47 47 47 47 47 47 48 48 48 47 47 47 48 47 48 49 45 37 34 36 40 50 59 55 52 64 76 70 64 69 69 60 56 56 53 53 54 52 51 53 51 47 44 41 37 34 35 37 38 38 35 33 34 35 37 37 37 37 36 35 34 33 33 32 30 27 24 22 23 25 26 27 27 27 26
51 49 48 47 47 47 47 47 47 46 46 46 46 46 46 46 46 46 46 44 43 42 41 38 37 36 31 24 21 16 12 24 44 54 54 60 68 61 53 59 63 53 43 41 42 46 51 53 54 55 53 49 45 40 36 35 36 38 38 35 33 33 34 36 37 37 37 37 36 35 34 33 33 32 30 27 25 23 24 25 27 27 28 28 27
51 49 48 47 46 46 46 47 46 46 46 45 45 45 46 45 44 44 44 41 38 36 34 31 27 25 20 14 13 13 9 10 21 40 52 56 59 53 44 46 47 40 34 34 37 41 45 47 48 48 47 44 40 36 35 36 37 38 36 34 33 34 35 36 37 37 37 37 36 35 34 34 33 31 30 28 26 25 25 26 27 28 29 29 29
51 49 47 47 46 46 46 46 46 46 46 45 44 44 44 43 42 41 39 36 33 30 28 27 24 20 16 17 21 23 24 29 21 16 29 38 40 39 38 38 39 39 39 38 38 39 37 36 36 37 37 37 35 34 35 37 37 36 35 34 34 34 35 36 37 37 37 37 36 36 35 34 33 31 30 29 28 26 26 26 28 28 29 30 30
48 47 47 47 47 46 45 46 46 46 46 45 44 43 43 42 40 39 36 33 31 30 29 27 26 21 16 16 19 20 19 17 13 13 23 30 32 31 30 28 28 30 32 33 35 34 32 31 31 32 33 34 35 35 36 37 36 35 34 34 34 35 35 35 37 37 37 37 37 36 35 34 33 31 30 30 29 28 27 27 28 29 30 30 31
46 45 46 46 46 45 45 46 47 47 46 45 43 42 42 41 39 39 38 36 34 34 31 27 25 23 20 17 16 16 15 13 11 9 12 17 19 19 17 15 15 17 21 25 28 30 30 31 32 32 34 35 35 36 37 36 35 34 34 34 34 34 34 35 37 38 38 38 38 36 35 34 33 32 31 30 30 29 29 29 29 29 30 31 31
46 46 46 46 46 46 46 46 46 46 46 44 42 42 41 40 38 38 38 38 35 33 31 28 25 23 22 20 19 18 17 16 16 16 16 17 17 17 18 18 18 17 18 22 25 28 30 32 33 34 35 35 35 36 35 35 34 34 34 34 34 34 35 36 38 39 39 39 38 36 35 34 33 32 32 31 31 31 30 30 30 30 30 31 32
46 46 46 46 46 46 45 44 44 44 44 42 42 42 41 39 37 35 34 34 33 30 30 30 27 23 21 22 23 22 20 18 19 19 18 17 18 20 22 22 22 22 24 27 30 31 32 34 35 35 35 35 35 35 34 34 34 35 34 34 34 34 35 37 38 39 40 39 38 36 34 33 33 32 32 32 32 32 32 31 31 31 31 31 32
41 41 42 41 40 40 40 40 40 41 41 41 41 42 41 40 38 35 33 32 31 30 30 30 28 25 22 21 19 17 17 18 19 19 19 20 22 24 25 26 27 28 30 32 34 35 35 35 36 35 35 35 35 35 34 34 35 35 34 35 35 35 36 37 39 39 40 39 38 36 34 34 33 33 33 33 33 33 33 33 32 32 32 32 32
36 36 36 36 35 35 35 36 36 38 39 39 40 42 43 41 40 38 35 33 31 31 32 30 26 24 24 25 24 23 23 25 26 26 27 29 31 31 31 31 31 33 35 37 37 36 35 35 35 35 35 35 35 34 34 34 35 35 35 35 36 36 37 38 38 39 39 39 37 36 34 34 34 34 34 34 34 34 34 34 33 33 33 33 33
35 34 34 34 33 32 33 34 34 35 37 38 39 41 42 42 42 40 38 34 33 33 32 29 26 25 25 26 28 30 31 32 31 29 28 30 33 35 34 32 29 29 30 32 32 32 33 34 34 34 34 34 33 33 33 34 34 35 35 36 36 37 37 37 38 38 38 37 37 36 35 35 35 36 35 35 35 35 35 35 34 34 34 33 33
Wind_Direction
225 226 229 232 236 241 245 247 247 247 244 242 241 242 244 245 245 245 246 250 253 254 255 254 255 255 258 265 270 270 264 254 252 255 256 257 262 267 279 290 292 290 293 300 305 308 314 317 317 318 322 326 328 334 341 343 344 343 339 336 333 331 329 326 325 323 322 324 325 325 323 322 322 321 319 316 315 314 312 311 310 309 308 307 306
227 227 230 233 237 241 245 247 248 248 247 245 243 243 245 247 248 247 247 249 251 252 253 255 256 256 257 263 268 268 261 250 248 252 253 255 260 268 279 286 286 286 290 298 303 306 311 317 317 313 312 313 317 323 331 336 339 339 336 334 330 329 328 326 324 322 321 322 323 322 321 320 318 317 315 312 311 311 311 311 311 310 308 306 305
228 229 232 235 238 242 245 246 246 247 248 248 247 247 248 249 250 251 251 251 252 252 252 254 255 256 257 261 265 265 257 247 245 249 250 252 259 269 279 282 280 284 290 297 303 308 311 315 317 314 310 312 317 322 329 334 335 335 334 333 330 328 329 328 324 321 320 321 322 319 316 315 314 313 312 312 312 313 313 313 313 311 308 306 305
232 233 235 237 238 240 243 242 242 246 249 251 251 251 252 253 254 254 253 254 254 254 253 254 255 255 257 261 264 262 254 244 242 245 247 247 255 267 275 276 275 281 289 296 303 308 311 314 317 316 313 316 322 326 330 333 333 332 332 332 331 328 326 326 323 320 319 320 321 319 315 312 311 312 313 315 316 316 316 316 314 311 309 308 307
235 236 238 238 239 239 239 237 237 243 248 250 251 253 256 259 261 261 259 257 256 256 256 255 255 255 256 258 260 258 251 243 240 243 244 243 251 264 270 269 271 279 287 295 302 307 311 315 317 317 317 320 324 328 333 336 335 334 333 332 331 327 323 321 319 317 317 318 319 319 317 314 312 313 316 318 319 320 319 318 316 313 312 311 309
237 238 239 239 239 238 236 231 232 239 243 244 249 257 265 272 276 278 276 270 266 264 262 259 257 256 255 256 256 254 250 245 242 244 244 241 248 259 262 261 266 275 284 292 301 305 309 313 315 316 319 321 323 328 334 337 337 337 337 335 331 326 322 319 318 316 316 316 316 317 316 315 313 315 318 319 320 321 320 318 317 315 314 312 311
238 239 239 237 236 236 233 227 227 235 239 242 251 265 279 288 292 294 295 294 290 285 278 269 262 258 255 254 254 254 252 247 244 246 244 241 246 255 256 256 261 271 280 289 297 302 306 312 315 318 322 324 324 327 330 331 332 335 338 337 332 325 321 319 318 317 316 316 315 316 316 315 315 317 320 320 320 320 320 318 317 315 313 313 312
239 240 239 235 232 233 231 224 224 231 237 243 253 267 281 291 296 300 304 305 303 300 295 288 279 270 264 260 258 258 257 252 248 248 244 241 246 251 251 251 257 266 276 286 293 298 303 310 315 321 326 326 322 322 324 325 326 331 336 335 329 323 319 318 317 317 316 314 313 314 314 314 316 320 321 320 320 320 320 318 316 315 314 314 314
240 242 239 232 229 230 228 223 224 229 235 242 252 263 274 283 290 299 308 311 307 302 297 293 290 286 278 272 268 266 265 261 254 249 245 243 247 251 250 250 254 263 272 282 290 295 300 308 317 323 325 323 321 322 322 320 320 325 330 329 324 319 316 314 315 315 314 312 311 312 313 314 318 321 321 320 320 320 319 318 316 315 315 315 315
241 241 237 231 229 229 227 225 226 229 233 240 247 255 265 274 283 292 299 305 308 305 300 295 290 286 281 278 275 273 272 266 257 250 246 245 249 253 251 250 253 259 268 279 287 292 298 306 317 322 320 322 326 329 328 324 322 324 325 323 318 312 310 309 310 310 310 310 311 313 314 316 319 321 320 320 320 320 319 318 317 316 316 316 316
237 235 231 227 228 229 229 229 230 232 233 237 244 251 259 267 276 283 288 294 299 301 302 299 293 286 281 278 276 275 273 266 258 252 248 248 252 255 254 252 253 258 267 275 283 289 294 302 314 318 318 322 327 328 329 328 327 325 323 320 313 306 302 304 305 305 307 308 310 313 314 317 319 320 320 320 320 320 319 318 318 318 318 317 317
234 233 229 229 230 230 233 234 233 233 234 238 244 250 254 260 268 276 281 286 289 291 295 297 295 291 287 280 276 275 273 266 259 255 252 251 254 256 256 255 255 259 265 271 278 285 290 297 308 313 315 320 323 321 323 325 325 324 322 319 312 301 296 299 302 303 305 307 310 313 314 317 319 319 320 320 320 320 319 318 319 319 318 318 319
234 234 233 235 235 234 235 236 234 234 236 241 246 250 252 256 262 269 275 278 279 283 287 288 289 291 290 283 278 276 272 267 262 258 254 254 256 257 258 258 258 259 263 268 274 281 288 294 303 309 312 316 318 317 319 323 325 325 323 320 313 301 295 298 301 301 304 308 311 313 315 317 318 319 319 319 319 319 318 318 319 319 319 320 321
232 232 234 236 235 234 235 236 236 236 237 242 247 251 254 255 256 261 268 273 275 278 280 279 280 283 285 283 280 277 272 268 265 260 256 254 256 258 259 259 259 260 262 267 272 279 286 292 299 304 306 309 312 312 316 321 324 324 323 321 314 301 296 299 300 300 305 309 312 314 315 317 318 318 319 319 318 318 318 319 319 320 321 322 322
229 230 233 234 234 235 236 238 240 242 243 246 249 252 255 256 256 257 261 267 271 273 273 273 273 275 279 280 279 277 274 270 267 263 258 256 257 260 261 261 262 262 262 266 271 276 282 289 295 298 299 301 304 306 310 316 320 321 322 320 314 303 297 299 300 303 307 310 313 314 315 316 317 318 318 317 317 317 318 319 320 321 322 323 323
230 230 232 235 237 239 239 239 241 243 245 248 250 252 254 256 257 257 257 261 267 269 270 272 272 272 272 274 274 275 274 272 269 265 261 257 258 262 264 264 264 264 263 265 269 275 279 284 289 292 292 294 297 300 305 312 315 317 318 318 314 307 302 302 304 306 309 311 312 313 314 315 316 317 317 316 316 317 318 319 320 322 324 325 325
233 233 235 236 239 242 241 238 239 242 245 249 252 255 257 258 259 258 256 257 261 266 269 270 270 269 269 269 269 272 274 271 268 266 263 259 260 264 266 265 264 265 265 265 268 273 276 280 284 287 287 289 291 295 302 308 311 313 314 314 312 309 306 305 306 307 309 310 310 311 312 314 315 316 316 316 316 317 318 319 321 324 325 326 326
236 237 238 238 242 245 243 241 240 241 243 247 252 255 256 258 260 259 258 258 259 261 262 263 264 265 266 266 266 268 271 270 266 264 262 261 262 264 265 265 265 264 265 265 267 270 272 275 279 283 284 286 289 293 299 304 306 307 309 309 308 307 306 305 306 307 308 309 309 309 311 313 314 315 315 316 316 317 318 320 322 324 327 327 327
245 245 243 242 245 249 252 252 250 247 243 242 246 251 251 252 255 258 262 267 268 266 262 260 260 261 262 263 263 263 265 267 266 264 262 262 262 263 264 266 265 263 263 265 266 267 268 271 276 280 282 286 289 292 297 301 302 303 305 306 304 303 304 304 304 306 308 308 307 308 310 313 314 315 315 315 316 316 317 320 322 325 327 328 328
249 249 248 246 249 254 259 261 260 257 250 243 243 248 252 256 260 264 268 272 275 274 268 261 257 258 260 259 260 261 263 264 266 265 264 263 262 261 262 264 264 262 261 263 263 264 266 269 272 276 280 285 291 293 295 298 299 300 303 303 302 301 301 302 303 305 306 305 305 307 310 312 313 314 314 314 315 316 317 319 322 325 328 329 329
246 247 248 249 252 256 260 263 264 263 259 252 251 254 260 265 269 270 272 273 274 277 276 267 256 254 257 259 258 259 261 262 265 266 265 264 263 263 263 265 265 262 260 261 261 262 265 268 270 273 276 283 290 292 291 293 296 298 301 301 299 298 299 300 302 304 304 303 303 306 309 310 311 312 313 314 314 315 317 319 322 326 329 329 329
246 248 250 252 256 259 261 264 264 265 266 267 267 268 270 271 272 272 273 275 275 275 279 275 262 253 254 259 260 259 260 261 263 265 265 265 264 264 265 266 265 262 260 261 261 261 263 265 268 271 273 279 286 288 286 288 293 296 299 299 296 296 297 299 301 303 302 301 302 305 307 309 309 310 312 313 314 315 317 319 323 326 329 329 328
248 249 251 254 257 260 263 265 266 266 269 272 272 272 273 272 273 274 275 276 276 274 275 277 270 259 255 257 259 259 260 261 261 263 266 267 266 266 266 266 265 263 261 261 261 260 261 262 265 269 271 275 280 282 283 288 292 293 295 296 294 294 296 297 300 301 301 300 301 304 306 307 307 309 311 312 313 314 316 319 323 327 328 327 328
250 252 255 258 261 265 267 268 269 270 271 272 272 273 273 273 273 274 274 276 276 274 272 272 272 267 262 260 260 261 262 261 260 262 265 265 264 264 265 264 265 266 264 261 259 259 259 262 264 267 269 271 273 276 282 289 292 291 292 293 292 292 294 296 299 300 300 299 300 302 304 305 305 308 310 311 312 314 316 319 324 326 327 326 328
254 256 258 261 264 266 268 268 269 269 270 271 272 271 271 271 271 271 272 273 274 274 273 272 272 272 268 264 263 265 266 264 261 262 264 263 261 261 263 263 264 266 265 262 259 258 259 262 263 265 268 269 271 274 280 287 289 288 290 292 291 291 293 296 298 299 298 297 298 300 302 302 303 306 308 310 311 313 315 319 324 325 325 326 328
256 258 260 262 263 265 266 267 268 268 269 270 270 268 266 266 267 268 269 270 271 272 274 274 273 272 270 267 268 270 271 267 264 263 263 261 259 259 260 261 262 264 264 262 259 256 257 259 260 264 268 269 270 273 277 281 284 287 289 291 290 290 292 295 297 298 297 295 296 299 300 300 301 304 307 308 310 312 314 319 323 324 324 326 329
258 259 261 263 264 265 266 267 267 268 268 267 267 267 265 264 265 266 267 268 269 270 271 273 273 272 271 271 271 272 271 269 267 265 262 260 259 259 259 259 261 262 262 261 259 258 258 258 259 262 266 267 269 271 272 274 279 284 286 289 290 290 291 293 295 296 295 294 294 297 298 298 300 302 305 308 309 311 314 318 321 323 324 326 330
259 261 263 265 266 266 266 266 266 266 265 264 264 264 265 265 264 264 265 267 268 268 268 269 269 269 270 270 269 268 267 267 266 265 264 262 261 260 258 258 259 260 261 262 261 260 260 261 261 262 264 265 267 267 267 270 276 280 282 285 288 288 289 291 294 295 293 292 293 295 296 297 299 301 303 306 308 310 313 317 320 321 324 327 330
261 262 263 264 265 265 264 264 264 263 263 263 264 264 265 266 267 267 268 269 269 269 269 268 268 268 268 267 266 266 266 266 265 265 264 262 260 259 257 255 255 256 257 260 261 260 260 262 262 262 263 265 265 265 265 267 272 276 279 282 285 286 286 288 292 293 291 289 291 293 294 296 297 299 302 305 307 309 312 315 318 320 323 327 331
259 259 260 260 261 263 264 265 265 266 267 268 269 269 270 270 271 272 273 273 272 272 272 271 271 270 268 268 268 268 267 266 264 263 262 260 258 257 257 255 255 254 253 253 254 256 257 258 260 261 264 265 263 261 262 267 271 277 279 281 282 283 284 286 290 291 289 288 289 291 293 294 296 297 300 303 305 307 310 313 317 320 323 327 330
256 257 259 261 263 265 267 268 268 269 270 270 271 271 272 272 273 274 274 274 273 272 271 271 271 271 270 270 269 268 269 268 266 266 266 265 263 260 257 257 258 257 254 252 251 252 253 254 256 259 262 262 260 259 265 271 274 276 278 280 281 281 281 284 288 288 286 286 287 289 291 292 294 296 298 301 303 305 309 312 315 318 322 325 329
258 260 262 265 266 267 268 269 268 268 268 268 269 270 270 270 271 271 272 272 271 270 269 268 268 268 269 269 268 267 267 266 266 266 266 266 265 263 260 260 260 260 258 256 253 252 253 254 256 257 258 259 259 263 269 274 275 274 277 279 279 278 279 282 285 285 284 284 285 287 289 291 292 294 295 298 301 303 307 311 314 316 320 324 328
262 263 264 265 267 268 268 269 269 269 268 268 269 270 270 270 270 270 271 272 271 270 269 268 267 267 267 268 267 266 264 263 262 263 263 263 263 262 262 262 263 262 260 258 254 252 252 254 256 258 257 258 261 264 269 273 274 274 276 275 274 275 278 280 282 283 282 282 283 285 287 289 290 292 293 295 298 302 305 309 312 314 318 322 326
263 264 265 265 266 266 267 268 269 269 269 270 270 271 271 272 272 272 272 273 273 273 272 271 269 268 266 266 265 264 262 259 256 257 258 260 261 261 260 261 262 263 261 257 254 253 252 252 254 255 255 258 262 262 264 270 273 273 273 272 271 273 276 278 280 281 280 280 281 283 285 287 288 290 291 293 296 300 303 306 309 312 315 319 323
266 267 267 268 269 269 268 268 269 269 269 269 270 271 271 272 272 273 274 275 275 274 273 271 270 268 266 265 263 262 260 258 256 254 254 255 256 257 257 258 259 261 261 259 257 257 257 255 254 255 256 260 262 259 259 268 274 272 269 269 270 272 274 275 278 278 278 278 280 281 283 286 286 287 289 291 293 298 301 304 306 309 312 316 320
269 270 271 273 274 274 272 271 271 271 270 270 270 271 272 273 274 275 277 277 277 275 273 272 271 269 268 267 265 263 261 258 256 254 252 252 253 252 252 253 255 257 259 259 258 259 259 257 256 255 257 260 261 258 259 266 271 268 266 267 269 270 272 274 275 276 276 277 278 279 282 284 285 286 287 289 292 296 299 301 304 305 308 312 315
271 272 273 275 277 276 275 274 273 272 271 271 271 272 273 273 275 277 277 277 277 277 277 276 275 273 272 270 268 266 263 260 257 255 252 251 252 252 252 252 253 255 257 257 257 258 259 260 261 261 259 259 260 259 260 264 266 264 265 267 268 269 270 272 274 274 275 275 276 278 280 282 283 284 285 287 290 293 295 299 301 302 304 307 310
273 274 274 275 276 275 274 274 273 272 272 272 272 272 273 274 276 278 279 280 280 281 282 281 279 277 275 273 269 265 262 258 255 252 250 248 247 249 251 251 252 256 255 253 252 255 256 259 264 264 260 258 260 260 260 262 263 264 265 267 267 267 268 271 272 273 274 274 274 276 278 280 282 282 283 285 287 290 293 296 298 299 300 303 306
275 275 275 274 275 275 274 273 272 271 271 272 272 273 275 276 278 280 282 283 284 285 285 283 281 279 278 277 272 265 260 257 252 249 248 247 246 246 247 247 249 251 248 244 246 249 251 255 260 257 253 258 264 262 261 261 262 263 264 265 265 265 267 269 271 271 272 272 272 274 277 279 280 281 282 283 286 288 290 293 295 296 298 299 301
275 276 276 274 274 275 273 271 270 269 269 270 272 273 275 276 278 281 283 285 286 286 286 285 283 280 278 277 268 255 252 254 252 247 244 244 244 243 242 244 246 243 234 232 239 244 247 252 254 249 251 264 269 263 260 261 261 261 263 263 263 264 266 268 270 270 270 271 271 273 276 278 279 280 281 282 284 286 288 290 292 294 295 296 297
273 275 275 274 273 272 271 269 268 268 268 270 271 273 274 276 278 280 283 285 288 290 290 290 288 283 279 279 275 262 250 246 244 240 236 237 238 236 234 236 237 233 227 230 238 243 245 248 249 248 255 267 267 259 258 260 259 260 262 261 262 264 266 267 268 268 268 269 270 272 275 277 277 279 280 281 282 283 284 287 289 291 293 294 294
271 271 271 270 268 268 268 268 268 268 269 270 271 271 273 275 277 279 280 283 287 290 292 294 294 288 282 282 283 274 230 207 210 210 210 221 231 236 234 230 227 228 232 240 246 249 250 251 251 251 256 261 259 254 255 256 257 260 261 261 262 264 265 266 267 267 267 267 268 271 274 276 276 278 279 279 280 280 281 284 287 289 291 291 291
270 269 267 265 264 265 266 267 268 268 269 270 271 272 273 275 276 277 278 279 281 286 292 298 300 294 283 263 231 217 231 240 206 192 194 211 226 233 230 222 223 233 250 256 255 255 255 254 252 251 251 251 250 250 252 255 258 260 260 260 262 264 264 265 265 265 266 266 266 269 273 274 275 276 277 277 278 278 279 281 284 286 288 289 289
267 266 263 261 261 262 264 266 267 268 269 270 272 272 273 274 275 275 275 274 275 280 291 300 303 299 282 254 238 244 275 301 299 238 218 227 230 226 223 227 239 253 261 260 256 252 249 247 247 246 244 244 246 249 253 256 258 258 259 261 262 263 263 264 264 264 264 263 264 268 271 272 273 275 275 275 276 276 276 278 281 284 286 287 288
262 261 260 259 259 260 261 264 266 268 269 270 271 271 271 271 272 272 271 270 270 277 286 292 295 298 291 270 261 267 282 299 297 255 238 237 234 230 234 244 253 255 253 249 245 242 241 241 242 241 241 244 248 251 253 256 257 258 260 262 262 262 263 263 263 263 262 261 263 266 269 271 273 274 274 274 274 274 274 275 278 281 283 285 286
261 259 258 258 258 259 260 262 265 268 268 268 268 268 267 267 268 269 270 270 271 274 280 284 283 283 283 277 271 272 274 274 271 254 234 231 233 236 240 243 240 236 236 237 237 237 238 241 241 242 245 248 251 252 254 256 258 259 261 262 262 262 263 263 263 263 261 260 262 265 268 271 272 273 273 273 273 272 272 273 275 278 282 283 285
262 261 261 260 260 261 263 265 267 268 268 267 266 265 264 264 265 266 269 272 274 275 278 280 279 276 273 270 264 260 258 255 253 249 244 241 240 239 238 238 238 236 236 237 237 238 241 244 246 249 251 253 254 256 257 259 260 261 262 262 263 263 263 263 263 262 260 260 261 264 268 271 272 272 272 272 272 271 271 271 273 276 280 282 284
263 264 265 265 265 266 267 268 268 267 266 265 263 262 261 261 263 264 266 270 274 276 275 276 278 278 274 268 263 259 255 251 252 251 246 237 234 238 242 245 244 242 243 247 249 249 249 251 253 254 256 257 258 259 260 261 262 262 263 263 264 263 263 263 262 261 260 260 261 264 268 270 271 271 272 272 271 270 269 270 271 274 278 281 284
266 266 266 266 267 267 267 267 265 264 264 263 262 261 260 259 260 261 262 266 271 276 276 275 274 272 268 262 255 243 232 230 236 237 228 221 227 236 241 245 249 253 255 257 258 257 255 255 257 258 258 259 259 260 260 261 262 262 263 263 263 262 262 261 260 259 259 260 262 265 268 270 271 271 271 271 271 270 269 268 270 272 276 279 283
266 266 265 265 264 264 264 264 262 261 261 261 260 259 259 258 258 258 260 263 268 271 272 270 263 253 248 247 242 232 224 224 229 231 229 230 235 240 243 248 255 259 259 258 259 258 257 257 258 259 259 258 258 259 260 260 261 262 262 262 261 261 260 260 259 259 259 261 263 266 268 270 271 271 271 271 270 269 268 268 268 270 273 277 281
265 264 264 263 262 261 261 261 261 260 260 259 258 257 256 257 258 258 259 262 267 269 266 260 250 242 240 242 241 237 233 234 236 235 230 229 233 240 244 246 245 246 249 252 254 254 254 255 256 256 255 256 257 258 259 260 261 261 261 261 261 261 260 259 259 258 259 261 264 267 268 269 270 270 270 270 269 269 268 267 267 268 271 275 279